Location: Baia Mare
(47.6567°N, 23.5850°E)
Time: 12:28:40
(UTC+02:00)

ISS - Pass Details

Date: 26 January 2019
Orbit: 404 x 407 km, 51.6° (Epoch: 16 January)

Event Time Altitude Azimuth Distance (km) Brightness Sun altitude
Rises 18:34:55 0° 237° (WSW) 2,316 1.5 -13.1°
Reaches altitude 10° 18:37:00 10° 234° (SW) 1,459 0.1 -13.5°
Maximum altitude 18:40:14 66° 152° (SSE) 446 -3.8 -14.0°
Enters shadow 18:41:40 30° 78° (ENE) 757 -3.1 -14.3°
